Location: Mat�lon
(46.2791°N, 7.1028°E)
Time: 10:30:17
(UTC+00:00)

ISS - Visible Passes

Search period start: 27 September 2021 00:00
Search period end: 07 October 2021 00:00
Orbit: 417 x 422 km, 51.6° (Epoch: 27 September)

Date Brightness Start Highest point End Pass type
(mag) Time Alt. Az. Time Alt. Az. Time Alt. Az.
27 Sep -2.4 18:16:14 10° WNW 18:19:17 31° N 18:21:46 14° ENE visible
27 Sep -1.4 19:53:09 10° WNW 19:54:43 25° NW 19:54:43 25° NW visible
28 Sep -3.2 19:05:51 10° WNW 19:09:08 47° NNE 19:09:11 47° NNE visible
29 Sep -2.8 18:18:33 10° WNW 18:21:44 38° NNE 18:23:40 20° ENE visible
29 Sep -1.1 19:55:22 10° WNW 19:56:38 21° WNW 19:56:38 21° WNW visible
30 Sep -3.7 19:08:01 10° WNW 19:11:09 75° NW 19:11:09 75° NW visible
01 Oct -3.6 18:20:43 10° WNW 18:24:04 62° NNE 18:25:43 27° E visible
01 Oct -0.8 19:57:51 10° W 19:58:42 15° W 19:58:42 15° W visible
02 Oct -3.2 17:33:25 10° WNW 17:36:42 47° NNE 17:39:58 10° E visible
02 Oct -2.7 19:10:19 10° WNW 19:13:20 39° SW 19:13:20 39° SW visible
03 Oct -3.4 18:22:55 10° WNW 18:26:14 61° SSW 18:28:02 24° SE visible
04 Oct -3.7 17:35:33 10° WNW 17:38:56 89° N 17:42:18 10° ESE visible
04 Oct -1.3 19:13:12 10° W 19:15:21 16° SW 19:15:50 16° SW visible
05 Oct -1.8 18:25:23 10° W 18:28:13 25° SW 18:30:45 11° SSE visible
06 Oct -2.4 17:37:50 10° WNW 17:41:00 38° SW 17:44:09 10° SSE visible
